| time (UTC) | temp F | wind direction | speed knots | gust knots | rain 1hr in | rain 24hr in | rain mn in | humidity % | barometer mb |
| 20260510210027 | 0 | 0.0 | 0.0 | 0.00 | 0.00 | 0.00 | 1012.7 | ||
| 20260510204531 | 0 | 0.0 | 0.0 | 0.00 | 0.00 | 0.00 | 1012.4 | ||
| 20260510203030 | 0 | 0.0 | 0.0 | 0.00 | 0.00 | 0.00 | 1012.4 | ||
| 20260510201530 | 0 | 0.0 | 0.0 | 0.00 | 0.00 | 0.00 | 1012.0 | ||
| 20260510200030 | 0 | 0.0 | 0.0 | 0.00 | 0.00 | 0.00 | 1011.7 | ||
| 20260510194531 | 0 | 0.0 | 0.0 | 0.00 | 0.00 | 0.00 | 1011.4 | ||
| 20260510193030 | 0 | 0.0 | 0.0 | 0.00 | 0.00 | 0.00 | 1011.2 | ||
| 20260510191528 | 0 | 0.0 | 0.0 | 0.00 | 0.00 | 0.00 | 1011.1 | ||
| 20260510190030 | 0 | 0.0 | 0.0 | 0.00 | 0.00 | 0.00 | 1011.0 | ||
| 20260510184530 | 0 | 0.0 | 0.0 | 0.00 | 0.00 | 0.00 | 1010.9 | ||
| 20260510183034 | 74 | 7.8 | 17.4 | 0.00 | 0.00 | 0.00 | 50 | 1010.9 | |
| 20260510181529 | 75 | 248 | 8.7 | 20.9 | 0.00 | 0.00 | 0.00 | 49 | 1010.8 |
| 20260510180031 | 75 | 177 | 5.2 | 15.6 | 0.00 | 0.00 | 0.00 | 48 | 1010.7 |
| 20260510174528 | 76 | 138 | 7.8 | 14.8 | 0.00 | 0.00 | 0.00 | 47 | 1010.6 |
| 20260510173027 | 76 | 163 | 5.2 | 17.4 | 0.00 | 0.00 | 0.00 | 48 | 1010.4 |
| 20260510171530 | 77 | 224 | 7.0 | 16.5 | 0.00 | 0.00 | 0.00 | 47 | 1010.4 |
| 20260510170029 | 78 | 158 | 10.4 | 16.5 | 0.00 | 0.00 | 0.00 | 46 | 1010.5 |
| 20260510164537 | 78 | 216 | 7.0 | 18.2 | 0.00 | 0.00 | 0.00 | 46 | 1010.3 |
| 20260510163028 | 79 | 99 | 1.7 | 14.8 | 0.00 | 0.00 | 0.00 | 45 | 1010.4 |
| 20260510161527 | 79 | 136 | 5.2 | 13.0 | 0.00 | 0.00 | 0.00 | 44 | 1010.4 |
| 20260510160028 | 78 | 152 | 5.2 | 20.9 | 0.00 | 0.00 | 0.00 | 44 | 1010.4 |
| 20260510154532 | 79 | 89 | 1.7 | 13.0 | 0.00 | 0.00 | 0.00 | 45 | 1010.4 |
| 20260510153030 | 79 | 241 | 6.1 | 16.5 | 0.00 | 0.00 | 0.00 | 44 | 1010.6 |
| 20260510151533 | 79 | 158 | 6.1 | 14.8 | 0.00 | 0.00 | 0.00 | 45 | 1010.9 |
| 20260510150031 | 79 | 125 | 5.2 | 13.9 | 0.00 | 0.00 | 0.00 | 46 | 1010.9 |
| 20260510144547 | 79 | 166 | 7.0 | 18.2 | 0.00 | 0.00 | 0.00 | 44 | 1010.9 |
| 20260510143030 | 79 | 108 | 6.1 | 13.9 | 0.00 | 0.00 | 0.00 | 44 | 1011.0 |
| 20260510141531 | 80 | 82 | 4.3 | 14.8 | 0.00 | 0.00 | 0.00 | 44 | 1011.1 |
| 20260510140030 | 79 | 316 | 3.5 | 10.4 | 0.00 | 0.00 | 0.00 | 45 | 1011.3 |
| 20260510134530 | 79 | 33 | 2.6 | 12.2 | 0.00 | 0.00 | 0.00 | 44 | 1011.5 |
| 20260510133028 | 78 | 163 | 3.5 | 9.6 | 0.00 | 0.00 | 0.00 | 47 | 1011.8 |
| 20260510131529 | 77 | 273 | 7.8 | 21.7 | 0.00 | 0.00 | 0.00 | 52 | 1011.7 |
| 20260510130029 | 77 | 115 | 7.0 | 14.8 | 0.00 | 0.00 | 0.00 | 50 | 1011.8 |
| 20260510124531 | 75 | 128 | 6.1 | 13.0 | 0.00 | 0.00 | 0.00 | 65 | 1012.0 |
| 20260510123030 | 74 | 115 | 4.3 | 10.4 | 0.00 | 0.00 | 0.00 | 67 | 1012.7 |
| 20260510121529 | 73 | 63 | 1.7 | 8.7 | 0.00 | 0.00 | 0.00 | 68 | 1013.1 |
| 20260510120037 | 72 | 49 | 4.3 | 8.7 | 0.00 | 0.00 | 0.00 | 72 | 1013.2 |
| 20260510114527 | 72 | 76 | 3.5 | 10.4 | 0.00 | 0.00 | 0.00 | 68 | 1013.4 |
| 20260510113030 | 73 | 117 | 4.3 | 10.4 | 0.00 | 0.00 | 0.00 | 64 | 1013.5 |
| 20260510111527 | 75 | 123 | 5.2 | 10.4 | 0.00 | 0.00 | 0.00 | 62 | 1013.7 |
| 20260510110031 | 76 | 115 | 3.5 | 6.1 | 0.00 | 0.00 | 0.00 | 58 | 1013.8 |
| 20260510104529 | 75 | 73 | 0.9 | 7.0 | 0.00 | 0.00 | 0.00 | 59 | 1014.0 |
| 20260510103027 | 74 | 120 | 1.7 | 6.1 | 0.00 | 0.00 | 0.00 | 60 | 1014.1 |
| 20260510101528 | 73 | 103 | 2.6 | 6.1 | 0.00 | 0.00 | 0.00 | 60 | 1014.2 |
| 20260510100105 | 72 | 114 | 2.6 | 7.0 | 0.00 | 0.00 | 0.00 | 62 | 1014.2 |
| 20260510094537 | 72 | 160 | 1.7 | 5.2 | 0.00 | 0.00 | 0.00 | 63 | 1014.3 |
| 20260510093030 | 71 | 96 | 0.9 | 6.1 | 0.00 | 0.00 | 0.00 | 66 | 1014.6 |
| 20260510091529 | 71 | 159 | 2.6 | 4.3 | 0.00 | 0.00 | 0.00 | 67 | 1014.6 |
| 20260510090028 | 70 | 120 | 0.9 | 5.2 | 0.00 | 0.00 | 0.00 | 69 | 1014.6 |
| 20260510084530 | 70 | 102 | 0.0 | 2.6 | 0.00 | 0.00 | 0.00 | 69 | 1015.0 |
| 20260510083030 | 67 | 104 | 0.9 | 3.5 | 0.00 | 0.00 | 0.00 | 73 | 1014.9 |
| 20260510081530 | 66 | 112 | 0.9 | 2.6 | 0.00 | 0.00 | 0.00 | 77 | 1014.7 |
| 20260510080032 | 66 | 116 | 2.6 | 4.3 | 0.00 | 0.00 | 0.00 | 77 | 1015.0 |
| 20260510074534 | 0 | 0.0 | 0.0 | 0.00 | 0.00 | 0.00 | 1015.1 | ||
| 20260510073028 | 0 | 0.0 | 0.0 | 0.00 | 0.00 | 0.00 | 1015.2 | ||
| 20260510071530 | 0 | 0.0 | 0.0 | 0.00 | 0.00 | 0.00 | 1015.2 | ||
| 20260510070028 | 0 | 0.0 | 0.0 | 0.00 | 0.00 | 0.00 | 1014.9 | ||
| 20260510064531 | 0 | 0.0 | 0.0 | 0.00 | 0.00 | 0.00 | 1015.1 | ||
| 20260510063029 | 0 | 0.0 | 0.0 | 0.00 | 0.00 | 0.00 | 1014.7 | ||
| 20260510061536 | 0 | 0.0 | 0.0 | 0.00 | 0.00 | 0.00 | 1015.0 | ||
| 20260510060044 | 0 | 0.0 | 0.0 | 0.00 | 0.00 | 0.00 | 1014.6 | ||
| 20260510054530 | 0 | 0.0 | 0.0 | 0.00 | 0.00 | 0.00 | 1014.4 | ||
| 20260510053032 | 0 | 0.0 | 0.0 | 0.00 | 0.00 | 0.00 | 1014.4 | ||
| 20260510051530 | 0 | 0.0 | 0.0 | 0.00 | 0.00 | 0.00 | 1014.4 | ||
| 20260510050029 | 0 | 0.0 | 0.0 | 0.00 | 0.00 | 0.00 | 1014.4 | ||
| 20260510044527 | 0 | 0.0 | 0.0 | 0.00 | 0.00 | 0.00 | 1014.4 | ||
| 20260510043030 | 0 | 0.0 | 0.0 | 0.00 | 0.00 | 0.00 | 1014.4 | ||
| 20260510041531 | 0 | 0.0 | 0.0 | 0.00 | 0.00 | 0.00 | 1014.3 | ||
| 20260510040030 | 0 | 0.0 | 0.0 | 0.00 | 0.00 | 0.00 | 1014.2 | ||
| 20260510034530 | 0 | 0.0 | 0.0 | 0.00 | 0.00 | 0.00 | 1014.2 | ||
| 20260510033028 | 0 | 0.0 | 0.0 | 0.00 | 0.00 | 0.00 | 1014.0 | ||
| 20260510031538 | 0 | 0.0 | 0.0 | 0.00 | 0.00 | 0.00 | 1013.9 | ||
| 20260510030030 | 0 | 0.0 | 0.0 | 0.00 | 0.00 | 0.00 | 1013.9 | ||
| 20260510024535 | 0 | 0.0 | 0.0 | 0.00 | 0.00 | 0.00 | 1013.9 | ||
| 20260510023042 | 0 | 0.0 | 0.0 | 0.00 | 0.00 | 0.00 | 1013.8 | ||
| 20260510021530 | 0 | 0.0 | 0.0 | 0.00 | 0.00 | 0.00 | 1013.8 | ||
| 20260510020028 | 0 | 0.0 | 0.0 | 0.00 | 0.00 | 0.00 | 1013.8 | ||
| 20260510014532 | 0 | 0.0 | 0.0 | 0.00 | 0.00 | 0.00 | 1013.7 | ||
| 20260510013027 | 0 | 0.0 | 0.0 | 0.00 | 0.00 | 0.00 | 1013.7 | ||
| 20260510011530 | 0 | 0.0 | 0.0 | 0.00 | 0.00 | 0.00 | 1013.8 | ||
| 20260510010032 | 0 | 0.0 | 0.0 | 0.00 | 0.00 | 0.00 | 1013.9 | ||
| 20260510004532 | 0 | 0.0 | 0.0 | 0.00 | 0.00 | 0.00 | 1014.1 | ||
| 20260510003028 | 0 | 0.0 | 0.0 | 0.00 | 0.00 | 0.00 | 1014.2 | ||
| 20260510001530 | 0 | 0.0 | 0.0 | 0.00 | 0.00 | 0.00 | 1014.2 | ||
| 20260510000029 | 0 | 0.0 | 0.0 | 0.00 | 0.00 | 0.00 | 1014.2 | ||
| 20260509234527 | 0 | 0.0 | 0.0 | 0.00 | 0.00 | 0.00 | 1014.5 | ||
| 20260509233031 | 0 | 0.0 | 0.0 | 0.00 | 0.00 | 0.00 | 1014.6 | ||
| 20260509231530 | 0 | 0.0 | 0.0 | 0.00 | 0.00 | 0.00 | 1014.6 | ||
| 20260509230030 | 0 | 0.0 | 0.0 | 0.00 | 0.00 | 0.00 | 1014.6 | ||
| 20260509224528 | 0 | 0.0 | 0.0 | 0.00 | 0.00 | 0.00 | 1014.7 | ||
| 20260509223029 | 0 | 0.0 | 0.0 | 0.00 | 0.00 | 0.00 | 1014.7 | ||
| 20260509221532 | 0 | 0.0 | 0.0 | 0.00 | 0.00 | 0.00 | 1014.6 | ||
| 20260509220030 | 0 | 0.0 | 0.0 | 0.00 | 0.00 | 0.00 | 1014.5 | ||
| 20260509214530 | 0 | 0.0 | 0.0 | 0.00 | 0.00 | 0.00 | 1014.5 | ||
| 20260509213028 | 0 | 0.0 | 0.0 | 0.00 | 0.00 | 0.00 | 1014.3 | ||
| 20260509211549 | 0 | 0.0 | 0.0 | 0.00 | 0.00 | 0.00 | 1014.3 |